"read_dt","SO2 (ppb)","flags","PMT voltage (V)","lamp voltage (V)","lamp intensity (Hz)","internal temp (C)","react chamber temp (C)","sample flow (l/min)","pres (mmHg)","SO2 bkg (ppb)","SO2 coefficient"
2015-10-18 00:00:00,1839E-3,5C000400,-0724,0828,12055,030.7,045.5,0.251,754.4,01.17,0.508
2015-10-18 00:01:00,1895E-3,5C000400,-0724,0829,12205,030.7,045.5,0.251,754.4,01.17,0.508
2015-10-18 00:02:00,2030E-3,5C000400,-0724,0829,12157,030.7,045.5,0.251,754.4,01.17,0.508
2015-10-18 00:03:00,1967E-3,5C000400,-0724,0828,12221,030.7,045.5,0.251,754.4,01.17,0.508
2015-10-18 00:04:00,1835E-3,5C000400,-0724,0828,12223,030.7,045.5,0.251,754.4,01.17,0.508
2015-10-18 00:05:00,1867E-3,5C000400,-0724,0829,12170,030.7,045.5,0.251,754.4,01.17,0.508
2015-10-18 00:06:00,2039E-3,5C000400,-0724,0828,12098,030.7,045.5,0.252,754.4,01.17,0.508
2015-10-18 00:07:00,1873E-3,5C000400,-0724,0829,12110,030.7,045.5,0.252,754.4,01.17,0.508
2015-10-18 00:08:00,1818E-3,5C000400,-0724,0828,12269,030.7,045.5,0.252,754.4,01.17,0.508
2015-10-18 00:09:00,1982E-3,5C000400,-0724,0829,12190,030.7,045.5,0.251,754.4,01.17,0.508
2015-10-18 00:10:00,1837E-3,5C000400,-0724,0828,12072,030.7,045.5,0.251,754.4,01.17,0.508
2015-10-18 00:11:00,2018E-3,5C000400,-0724,0828,12150,030.7,045.5,0.251,754.4,01.17,0.508
2015-10-18 00:12:00,1915E-3,5C000400,-0724,0828,12148,030.7,045.5,0.251,754.4,01.17,0.508
2015-10-18 00:13:00,1828E-3,5C000400,-0724,0828,12232,030.7,045.5,0.251,754.4,01.17,0.508
2015-10-18 00:14:00,1879E-3,5C000400,-0724,0829,12024,030.7,045.5,0.251,754.4,01.17,0.508
2015-10-18 00:15:00,1897E-3,5C000400,-0724,0828,12188,030.8,045.5,0.251,754.4,01.17,0.508
2015-10-18 00:16:00,1887E-3,5C000400,-0724,0828,12157,030.7,045.5,0.252,754.4,01.17,0.508
2015-10-18 00:17:00,1934E-3,5C000400,-0724,0829,12139,030.7,045.5,0.252,754.4,01.17,0.508
2015-10-18 00:18:00,1799E-3,5C000400,-0724,0829,12267,030.7,045.5,0.252,754.4,01.17,0.508
2015-10-18 00:19:00,1860E-3,5C000400,-0724,0829,12198,030.7,045.5,0.251,754.3,01.17,0.508
2015-10-18 00:20:00,1753E-3,5C000400,-0724,0828,12169,030.7,045.5,0.251,754.3,01.17,0.508
2015-10-18 00:21:00,1935E-3,5C000400,-0724,0829,12280,030.7,045.5,0.251,754.3,01.17,0.508
2015-10-18 00:22:00,1924E-3,5C000400,-0724,0828,12220,030.7,045.5,0.251,754.2,01.17,0.508
2015-10-18 00:23:00,1855E-3,5C000400,-0724,0828,12144,030.7,045.5,0.251,754.3,01.17,0.508
2015-10-18 00:24:00,1716E-3,5C000400,-0724,0828,12208,030.7,045.5,0.251,754.3,01.17,0.508
2015-10-18 00:25:00,1843E-3,5C000400,-0724,0828,12077,030.7,045.5,0.251,754.3,01.17,0.508
2015-10-18 00:26:00,1838E-3,5C000400,-0724,0828,12188,030.7,045.5,0.252,754.3,01.17,0.508
2015-10-18 00:27:00,1822E-3,5C000400,-0724,0829,12336,030.7,045.5,0.252,754.3,01.17,0.508
2015-10-18 00:28:00,1891E-3,5C000400,-0724,0828,12172,030.7,045.5,0.252,754.3,01.17,0.508
2015-10-18 00:29:00,1763E-3,5C000400,-0724,0828,12222,030.7,045.5,0.252,754.3,01.17,0.508
2015-10-18 00:30:00,1796E-3,5C000400,-0724,0828,12224,030.7,045.5,0.251,754.3,01.17,0.508
2015-10-18 00:31:00,1807E-3,5C000400,-0724,0829,12279,030.7,045.5,0.251,754.3,01.17,0.508
2015-10-18 00:32:00,1827E-3,5C000400,-0724,0828,12117,030.7,045.5,0.251,754.3,01.17,0.508
2015-10-18 00:33:00,1819E-3,5C000400,-0724,0829,12287,030.7,045.5,0.251,754.3,01.17,0.508
2015-10-18 00:34:00,1998E-3,5C000400,-0724,0828,12118,030.7,045.5,0.251,754.3,01.17,0.508
2015-10-18 00:35:00,1815E-3,5C000400,-0724,0828,12256,030.7,045.5,0.251,754.3,01.17,0.508
2015-10-18 00:36:00,1840E-3,5C000400,-0724,0829,12162,030.7,045.5,0.251,754.2,01.17,0.508
2015-10-18 00:37:00,1845E-3,5C000400,-0724,0828,12249,030.8,045.5,0.252,754.6,01.17,0.508
2015-10-18 00:38:00,1926E-3,5C000400,-0724,0829,12383,030.7,045.5,0.252,754.4,01.17,0.508
2015-10-18 00:39:00,1858E-3,5C000400,-0724,0828,12215,030.7,045.5,0.251,754.3,01.17,0.508
2015-10-18 00:40:00,1815E-3,5C000400,-0724,0828,12191,030.7,045.5,0.251,754.3,01.17,0.508
2015-10-18 00:41:00,1930E-3,5C000400,-0724,0829,12134,030.7,045.5,0.251,754.3,01.17,0.508
2015-10-18 00:42:00,1753E-3,5C000400,-0724,0828,12349,030.7,045.5,0.251,754.3,01.17,0.508
2015-10-18 00:43:00,1939E-3,5C000400,-0724,0828,12021,030.7,045.5,0.251,754.4,01.17,0.508
2015-10-18 00:44:00,1920E-3,5C000400,-0724,0829,12176,030.7,045.5,0.251,754.3,01.17,0.508
2015-10-18 00:45:00,1863E-3,5C000400,-0724,0829,12266,030.7,045.5,0.251,754.3,01.17,0.508
2015-10-18 00:46:00,1987E-3,5C000400,-0724,0829,12166,030.7,045.5,0.251,754.3,01.17,0.508
2015-10-18 00:47:00,1828E-3,5C000400,-0724,0829,12339,030.7,045.5,0.252,754.3,01.17,0.508
2015-10-18 00:48:00,1907E-3,5C000400,-0724,0828,12242,030.7,045.5,0.252,754.3,01.17,0.508
2015-10-18 00:49:00,1817E-3,5C000400,-0724,0829,12266,030.7,045.5,0.251,754.3,01.17,0.508
2015-10-18 00:50:00,1854E-3,5C000400,-0724,0828,12160,030.7,045.5,0.251,754.3,01.17,0.508
2015-10-18 00:51:00,1804E-3,5C000400,-0724,0829,12172,030.7,045.5,0.251,754.3,01.17,0.508
2015-10-18 00:52:00,1934E-3,5C000400,-0724,0829,12190,030.8,045.5,0.251,754.3,01.17,0.508
2015-10-18 00:53:00,1891E-3,5C000400,-0724,0828,12264,030.7,045.5,0.251,754.3,01.17,0.508
2015-10-18 00:54:00,1953E-3,5C000400,-0724,0828,12328,030.8,045.5,0.251,754.3,01.17,0.508
2015-10-18 00:55:00,1833E-3,5C000400,-0724,0828,12227,030.7,045.5,0.251,754.3,01.17,0.508
2015-10-18 00:56:00,1957E-3,5C000400,-0724,0828,12207,030.8,045.5,0.252,754.3,01.17,0.508
2015-10-18 00:57:00,2093E-3,5C000400,-0724,0828,12127,030.7,045.5,0.252,754.3,01.17,0.508
2015-10-18 00:58:00,1797E-3,5C000400,-0724,0828,12229,030.8,045.5,0.252,754.3,01.17,0.508
2015-10-18 00:59:00,1944E-3,5C000400,-0724,0828,12281,030.8,045.5,0.251,754.2,01.17,0.508
2015-10-18 01:00:00,1827E-3,5C000400,-0724,0828,12292,030.8,045.5,0.251,754.3,01.17,0.508
2015-10-18 01:01:00,1869E-3,5C000400,-0724,0828,12129,030.7,045.5,0.251,754.3,01.17,0.508
2015-10-18 01:02:00,2026E-3,5C000400,-0724,0828,12321,030.7,045.5,0.251,754.3,01.17,0.508
2015-10-18 01:03:00,1885E-3,5C000400,-0724,0829,12106,030.8,045.5,0.251,754.3,01.17,0.508
2015-10-18 01:04:00,1928E-3,5C000400,-0724,0828,12242,030.8,045.5,0.252,754.3,01.17,0.508
2015-10-18 01:05:00,1775E-3,5C000400,-0724,0829,12348,030.8,045.5,0.252,754.3,01.17,0.508
2015-10-18 01:06:00,1835E-3,5C000400,-0724,0828,12100,030.7,045.5,0.251,754.3,01.17,0.508
2015-10-18 01:07:00,1795E-3,5C000400,-0724,0828,12044,030.8,045.5,0.251,754.3,01.17,0.508
2015-10-18 01:08:00,1851E-3,5C000400,-0724,0828,12333,030.8,045.5,0.251,754.3,01.17,0.508
2015-10-18 01:09:00,1902E-3,5C000400,-0724,0828,12204,030.8,045.5,0.251,754.3,01.17,0.508
2015-10-18 01:10:00,1905E-3,5C000400,-0724,0829,12200,030.8,045.5,0.251,754.3,01.17,0.508
2015-10-18 01:11:00,1862E-3,5C000400,-0724,0828,12254,030.8,045.5,0.251,754.3,01.17,0.508
2015-10-18 01:12:00,1796E-3,5C000400,-0724,0829,12175,030.8,045.5,0.251,754.3,01.17,0.508
2015-10-18 01:13:00,1722E-3,5C000400,-0724,0828,12202,030.8,045.5,0.252,754.3,01.17,0.508
2015-10-18 01:14:00,1853E-3,5C000400,-0724,0828,12297,030.8,045.5,0.251,754.3,01.17,0.508
2015-10-18 01:15:00,1866E-3,5C000400,-0724,0828,12340,030.8,045.5,0.251,754.4,01.17,0.508
2015-10-18 01:16:00,1962E-3,5C000400,-0724,0829,12220,030.8,045.5,0.251,754.3,01.17,0.508
2015-10-18 01:17:00,1872E-3,5C000400,-0724,0829,12133,030.8,045.5,0.251,754.3,01.17,0.508
2015-10-18 01:18:00,1904E-3,5C000400,-0724,0829,12241,030.8,045.5,0.251,754.3,01.17,0.508
2015-10-18 01:19:00,1829E-3,5C000400,-0724,0829,12341,030.8,045.5,0.251,754.4,01.17,0.508
2015-10-18 01:20:00,1780E-3,5C000400,-0724,0828,12186,030.8,045.5,0.251,754.4,01.17,0.508
2015-10-18 01:21:00,1724E-3,5C000400,-0724,0829,12210,030.8,045.5,0.251,754.4,01.17,0.508
2015-10-18 01:22:00,1974E-3,5C000400,-0724,0828,12121,030.8,045.5,0.251,754.4,01.17,0.508
2015-10-18 01:23:00,1842E-3,5C000400,-0724,0829,12074,030.8,045.5,0.252,754.4,01.17,0.508
2015-10-18 01:24:00,1848E-3,5C000400,-0724,0828,12317,030.8,045.5,0.251,754.4,01.17,0.508
2015-10-18 01:25:00,1857E-3,5C000400,-0724,0829,12150,030.8,045.5,0.251,754.4,01.17,0.508
2015-10-18 01:26:00,1787E-3,5C000400,-0724,0828,12208,030.8,045.5,0.251,754.4,01.17,0.508
2015-10-18 01:27:00,1826E-3,5C000400,-0724,0828,12299,030.8,045.5,0.251,754.4,01.17,0.508
2015-10-18 01:28:00,1860E-3,5C000400,-0724,0828,12144,030.8,045.5,0.251,754.4,01.17,0.508
2015-10-18 01:29:00,1923E-3,5C000400,-0724,0828,12211,030.8,045.5,0.251,754.4,01.17,0.508
2015-10-18 01:30:00,1799E-3,5C000400,-0724,0828,12283,030.8,045.5,0.251,754.3,01.17,0.508
2015-10-18 01:31:00,1670E-3,5C000400,-0724,0828,12137,030.8,045.5,0.251,754.4,01.17,0.508
2015-10-18 01:32:00,1752E-3,5C000400,-0724,0829,12263,030.8,045.5,0.251,754.4,01.17,0.508
2015-10-18 01:33:00,1948E-3,5C000400,-0724,0829,12181,030.8,045.5,0.251,754.3,01.17,0.508
2015-10-18 01:34:00,1892E-3,5C000400,-0724,0829,12219,030.8,045.5,0.251,754.3,01.17,0.508
2015-10-18 01:35:00,1927E-3,5C000400,-0724,0828,12307,030.8,045.5,0.252,754.3,01.17,0.508
2015-10-18 01:36:00,1828E-3,5C000400,-0724,0828,12110,030.8,045.5,0.251,754.3,01.17,0.508
2015-10-18 01:37:00,1927E-3,5C000400,-0724,0828,12100,030.8,045.5,0.251,754.3,01.17,0.508
2015-10-18 01:38:00,1827E-3,5C000400,-0724,0829,12341,030.8,045.5,0.251,754.3,01.17,0.508
2015-10-18 01:39:00,1885E-3,5C000400,-0724,0829,12155,030.8,045.5,0.251,754.4,01.17,0.508
2015-10-18 01:40:00,1988E-3,5C000400,-0724,0829,12265,030.8,045.5,0.251,754.3,01.17,0.508
2015-10-18 01:41:00,1846E-3,5C000400,-0724,0829,12271,030.8,045.5,0.251,754.4,01.17,0.508
2015-10-18 01:42:00,1894E-3,5C000400,-0724,0829,12151,030.8,045.5,0.251,754.4,01.17,0.508
2015-10-18 01:43:00,1940E-3,5C000400,-0724,0828,12303,030.8,045.5,0.251,754.3,01.17,0.508
2015-10-18 01:44:00,1930E-3,5C000400,-0724,0829,12122,030.8,045.5,0.251,754.3,01.17,0.508
2015-10-18 01:45:00,1787E-3,5C000400,-0724,0829,12187,030.8,045.5,0.251,754.3,01.17,0.508
2015-10-18 01:46:00,1857E-3,5C000400,-0724,0829,12154,030.8,045.5,0.251,754.3,01.17,0.508
2015-10-18 01:47:00,1860E-3,5C000400,-0724,0828,12255,030.8,045.5,0.251,754.3,01.17,0.508
2015-10-18 01:48:00,1841E-3,5C000400,-0724,0829,12121,030.8,045.5,0.251,754.3,01.17,0.508
2015-10-18 01:49:00,1928E-3,5C000400,-0724,0828,12259,030.8,045.5,0.251,754.3,01.17,0.508
2015-10-18 01:50:00,1835E-3,5C000400,-0724,0828,12132,030.8,045.5,0.251,754.3,01.17,0.508
2015-10-18 01:51:00,1972E-3,5C000400,-0724,0828,12162,030.8,045.5,0.251,754.3,01.17,0.508
2015-10-18 01:52:00,1874E-3,5C000400,-0724,0829,12072,030.8,045.5,0.251,754.3,01.17,0.508
2015-10-18 01:53:00,1797E-3,5C000400,-0724,0828,12256,030.8,045.5,0.251,754.3,01.17,0.508
2015-10-18 01:54:00,1802E-3,5C000400,-0724,0829,12366,030.8,045.5,0.251,754.3,01.17,0.508
2015-10-18 01:55:00,1815E-3,5C000400,-0724,0828,12181,030.8,045.5,0.251,754.3,01.17,0.508
2015-10-18 01:56:00,1988E-3,5C000400,-0724,0828,12183,030.8,045.5,0.252,754.3,01.17,0.508
2015-10-18 01:57:00,1852E-3,5C000400,-0724,0828,12258,030.8,045.5,0.252,754.3,01.17,0.508
2015-10-18 01:58:00,1889E-3,5C000400,-0724,0828,12081,030.8,045.5,0.251,754.3,01.17,0.508
2015-10-18 01:59:00,1823E-3,5C000400,-0724,0829,12218,030.8,045.5,0.251,754.3,01.17,0.508
2015-10-18 02:00:00,1921E-3,5C000400,-0724,0828,12241,030.8,045.5,0.251,754.3,01.17,0.508
2015-10-18 02:01:00,1880E-3,5C000400,-0724,0829,12159,030.8,045.5,0.251,754.3,01.17,0.508
2015-10-18 02:02:00,1847E-3,5C000400,-0724,0829,12268,030.8,045.5,0.251,754.3,01.17,0.508
2015-10-18 02:03:00,1909E-3,5C000400,-0724,0829,12006,030.8,045.5,0.251,754.3,01.17,0.508
2015-10-18 02:04:00,1778E-3,5C000400,-0724,0828,12175,030.8,045.5,0.251,754.3,01.17,0.508
2015-10-18 02:05:00,1889E-3,5C000400,-0724,0828,12288,030.8,045.5,0.251,754.3,01.17,0.508
2015-10-18 02:06:00,1961E-3,5C000400,-0724,0829,12264,030.8,045.5,0.251,754.3,01.17,0.508
2015-10-18 02:07:00,1869E-3,5C000400,-0724,0828,12189,030.8,045.5,0.251,754.2,01.17,0.508
2015-10-18 02:08:00,1992E-3,5C000400,-0724,0829,12094,030.8,045.5,0.251,754.3,01.17,0.508
2015-10-18 02:09:00,1802E-3,5C000400,-0724,0828,12373,030.8,045.5,0.251,754.3,01.17,0.508
2015-10-18 02:10:00,1924E-3,5C000400,-0724,0828,12191,030.8,045.5,0.251,754.3,01.17,0.508
2015-10-18 02:11:00,1909E-3,5C000400,-0724,0828,12208,030.9,045.5,0.251,754.3,01.17,0.508
2015-10-18 02:12:00,1895E-3,5C000400,-0724,0829,12057,030.8,045.5,0.251,754.3,01.17,0.508
2015-10-18 02:13:00,1721E-3,5C000400,-0724,0828,12250,030.8,045.5,0.251,754.3,01.17,0.508
2015-10-18 02:14:00,1826E-3,5C000400,-0724,0829,12220,030.8,045.5,0.251,754.3,01.17,0.508
2015-10-18 02:15:00,1822E-3,5C000400,-0724,0829,12087,030.8,045.5,0.251,754.3,01.17,0.508
2015-10-18 02:16:00,1802E-3,5C000400,-0724,0829,12305,030.8,045.5,0.251,754.3,01.17,0.508
2015-10-18 02:17:00,1924E-3,5C000400,-0724,0829,12198,030.8,045.5,0.251,754.3,01.17,0.508
2015-10-18 02:18:00,1792E-3,5C000400,-0724,0829,12233,030.8,045.5,0.251,754.3,01.17,0.508
2015-10-18 02:19:00,1761E-3,5C000400,-0724,0829,12151,030.9,045.5,0.251,754.3,01.17,0.508
2015-10-18 02:20:00,1902E-3,5C000400,-0724,0829,12300,030.9,045.5,0.251,754.3,01.17,0.508
2015-10-18 02:21:00,1827E-3,5C000400,-0724,0828,12267,030.8,045.5,0.251,754.3,01.17,0.508
2015-10-18 02:22:00,1796E-3,5C000400,-0724,0829,12233,030.8,045.5,0.251,754.2,01.17,0.508
2015-10-18 02:23:00,1798E-3,5C000400,-0724,0828,12164,030.8,045.5,0.251,754.2,01.17,0.508
2015-10-18 02:24:00,1827E-3,5C000400,-0724,0829,12176,030.9,045.5,0.251,754.2,01.17,0.508
2015-10-18 02:25:00,1835E-3,5C000400,-0724,0829,12049,030.9,045.5,0.251,754.2,01.17,0.508
2015-10-18 02:26:00,2044E-3,5C000400,-0724,0828,12153,030.9,045.5,0.251,754.2,01.17,0.508
2015-10-18 02:27:00,1910E-3,5C000400,-0724,0829,12166,030.9,045.5,0.251,754.3,01.17,0.508
2015-10-18 02:28:00,1915E-3,5C000400,-0724,0829,12225,030.9,045.5,0.251,754.3,01.17,0.508
2015-10-18 02:29:00,1743E-3,5C000400,-0724,0829,12389,030.9,045.5,0.251,754.3,01.17,0.508
2015-10-18 02:30:00,1998E-3,5C000400,-0724,0829,12267,030.9,045.5,0.251,754.3,01.17,0.508
2015-10-18 02:31:00,1782E-3,5C000400,-0724,0828,12206,030.9,045.5,0.251,754.3,01.17,0.508
2015-10-18 02:32:00,1846E-3,5C000400,-0724,0829,12274,030.9,045.5,0.251,754.3,01.17,0.508
2015-10-18 02:33:00,1752E-3,5C000400,-0724,0828,12110,030.9,045.5,0.251,754.3,01.17,0.508
2015-10-18 02:34:00,1902E-3,5C000400,-0724,0829,12178,030.9,045.5,0.251,754.2,01.17,0.508
2015-10-18 02:35:00,1840E-3,5C000400,-0724,0829,12302,030.9,045.5,0.251,754.2,01.17,0.508
2015-10-18 02:36:00,1784E-3,5C000400,-0724,0829,12186,030.9,045.5,0.251,754.2,01.17,0.508
2015-10-18 02:37:00,1863E-3,5C000400,-0724,0828,12375,030.9,045.5,0.251,754.2,01.17,0.508
2015-10-18 02:38:00,1963E-3,5C000400,-0724,0829,12252,030.9,045.5,0.251,754.2,01.17,0.508
2015-10-18 02:39:00,1936E-3,5C000400,-0724,0828,12246,030.9,045.5,0.251,754.2,01.17,0.508
2015-10-18 02:40:00,1794E-3,5C000400,-0724,0828,12165,030.9,045.5,0.251,754.2,01.17,0.508
2015-10-18 02:41:00,1822E-3,5C000400,-0724,0829,12182,030.9,045.5,0.251,754.3,01.17,0.508
2015-10-18 02:42:00,1791E-3,5C000400,-0724,0828,12240,030.9,045.5,0.251,754.3,01.17,0.508
2015-10-18 02:43:00,1808E-3,5C000400,-0724,0827,12193,030.8,045.5,0.251,754.2,01.17,0.508
2015-10-18 02:44:00,1908E-3,5C000400,-0724,0829,12206,030.9,045.5,0.251,754.2,01.17,0.508
2015-10-18 02:45:00,1821E-3,5C000400,-0724,0828,12090,030.9,045.5,0.251,754.2,01.17,0.508
2015-10-18 02:46:00,1769E-3,5C000400,-0724,0829,12199,030.9,045.5,0.251,754.2,01.17,0.508
2015-10-18 02:47:00,1917E-3,5C000400,-0724,0829,12288,030.9,045.5,0.251,754.2,01.17,0.508
2015-10-18 02:48:00,1902E-3,5C000400,-0724,0829,12135,030.9,045.5,0.251,754.2,01.17,0.508
2015-10-18 02:49:00,1836E-3,5C000400,-0724,0829,12103,030.9,045.5,0.251,754.2,01.17,0.508
2015-10-18 02:50:00,1812E-3,5C000400,-0724,0828,12263,030.9,045.5,0.251,754.2,01.17,0.508
2015-10-18 02:51:00,1823E-3,5C000400,-0724,0828,12295,030.9,045.5,0.251,754.2,01.17,0.508
2015-10-18 02:52:00,1931E-3,5C000400,-0724,0828,12260,030.9,045.5,0.251,754.2,01.17,0.508
2015-10-18 02:53:00,1832E-3,5C000400,-0724,0829,12317,030.9,045.5,0.251,754.2,01.17,0.508
2015-10-18 02:54:00,1819E-3,5C000400,-0724,0829,12345,030.9,045.5,0.251,754.2,01.17,0.508
2015-10-18 02:55:00,1834E-3,5C000400,-0724,0829,12096,030.9,045.5,0.251,754.3,01.17,0.508
2015-10-18 02:56:00,1850E-3,5C000400,-0724,0828,12152,030.9,045.5,0.252,754.2,01.17,0.508
2015-10-18 02:57:00,1806E-3,5C000400,-0724,0828,12190,030.9,045.5,0.252,754.2,01.17,0.508
2015-10-18 02:58:00,1864E-3,5C000400,-0724,0829,12166,030.9,045.5,0.251,754.2,01.17,0.508
2015-10-18 02:59:00,1781E-3,5C000400,-0724,0830,12300,030.9,045.5,0.251,754.2,01.17,0.508
2015-10-18 03:00:00,1782E-3,5C000400,-0724,0829,12220,030.9,045.5,0.251,754.3,01.17,0.508
2015-10-18 03:01:00,1877E-3,5C000400,-0724,0829,12276,030.9,045.5,0.251,754.3,01.17,0.508
2015-10-18 03:02:00,1926E-3,5C000400,-0724,0829,12102,030.9,045.5,0.251,754.3,01.17,0.508
2015-10-18 03:03:00,1953E-3,5C000400,-0724,0828,12213,030.9,045.5,0.251,754.3,01.17,0.508
2015-10-18 03:04:00,1825E-3,5C000400,-0724,0828,12176,030.9,045.5,0.251,754.2,01.17,0.508
2015-10-18 03:05:00,1862E-3,5C000400,-0724,0828,12241,030.9,045.5,0.251,754.3,01.17,0.508
2015-10-18 03:06:00,1901E-3,5C000400,-0724,0828,12220,030.9,045.5,0.251,754.3,01.17,0.508
2015-10-18 03:07:00,1913E-3,5C000400,-0724,0828,12218,030.9,045.5,0.251,754.3,01.17,0.508
2015-10-18 03:08:00,1808E-3,5C000400,-0724,0828,12223,030.9,045.5,0.251,754.3,01.17,0.508
2015-10-18 03:09:00,1823E-3,5C000400,-0724,0829,12225,030.9,045.5,0.251,754.3,01.17,0.508
2015-10-18 03:10:00,1934E-3,5C000400,-0724,0828,12234,030.9,045.5,0.251,754.3,01.17,0.508
2015-10-18 03:11:00,2023E-3,5C000400,-0724,0829,12217,030.9,045.5,0.251,754.3,01.17,0.508
2015-10-18 03:12:00,1972E-3,5C000400,-0724,0828,12178,030.9,045.5,0.251,754.3,01.17,0.508
2015-10-18 03:13:00,1743E-3,5C000400,-0724,0828,12046,030.9,045.5,0.251,754.3,01.17,0.508
2015-10-18 03:14:00,1896E-3,5C000400,-0724,0828,12199,030.9,045.5,0.251,754.3,01.17,0.508
2015-10-18 03:15:00,1944E-3,5C000400,-0724,0828,12234,030.9,045.5,0.251,754.3,01.17,0.508
2015-10-18 03:16:00,1906E-3,5C000400,-0724,0828,12219,030.9,045.5,0.251,754.3,01.17,0.508
2015-10-18 03:17:00,1857E-3,5C000400,-0724,0829,12015,030.9,045.5,0.251,754.3,01.17,0.508
2015-10-18 03:18:00,1900E-3,5C000400,-0724,0830,12230,030.9,045.5,0.251,754.4,01.17,0.508
2015-10-18 03:19:00,1839E-3,5C000400,-0724,0829,12243,030.9,045.5,0.251,754.4,01.17,0.508
2015-10-18 03:20:00,2005E-3,5C000400,-0724,0828,12265,031.0,045.5,0.251,754.4,01.17,0.508
2015-10-18 03:21:00,1801E-3,5C000400,-0724,0829,12204,030.9,045.5,0.251,754.4,01.17,0.508
2015-10-18 03:22:00,1772E-3,5C000400,-0724,0830,12208,030.9,045.5,0.251,754.3,01.17,0.508
2015-10-18 03:23:00,2012E-3,5C000400,-0724,0828,12106,030.8,045.5,0.251,754.4,01.17,0.508
2015-10-18 03:24:00,1982E-3,5C000400,-0724,0828,11971,030.6,045.5,0.251,754.4,01.17,0.508
2015-10-18 03:25:00,1925E-3,5C000400,-0724,0828,12283,030.5,045.5,0.251,754.4,01.17,0.508
2015-10-18 03:26:00,1975E-3,5C000400,-0724,0828,12173,030.3,045.5,0.251,754.4,01.17,0.508
2015-10-18 03:27:00,1806E-3,5C000400,-0724,0827,12255,030.1,045.5,0.252,754.4,01.17,0.508
2015-10-18 03:28:00,1858E-3,5C000400,-0724,0828,12210,030.0,045.5,0.251,754.5,01.17,0.508
2015-10-18 03:29:00,1911E-3,5C000400,-0724,0828,12146,030.0,045.5,0.252,754.5,01.17,0.508
2015-10-18 03:30:00,1884E-3,5C000400,-0724,0828,11977,030.0,045.5,0.252,754.5,01.17,0.508
2015-10-18 03:31:00,1871E-3,5C000400,-0724,0828,12318,030.1,045.5,0.252,754.5,01.17,0.508
2015-10-18 03:32:00,1894E-3,5C000400,-0724,0828,12077,030.1,045.5,0.252,754.4,01.17,0.508
2015-10-18 03:33:00,1971E-3,5C000400,-0724,0829,12246,030.1,045.5,0.252,754.5,01.17,0.508
2015-10-18 03:34:00,1902E-3,5C000400,-0724,0829,12197,030.2,045.5,0.252,754.5,01.17,0.508
2015-10-18 03:35:00,1922E-3,5C000400,-0724,0828,12104,030.2,045.5,0.252,754.5,01.17,0.508
2015-10-18 03:36:00,1906E-3,5C000400,-0724,0828,12267,030.2,045.5,0.252,754.5,01.17,0.508
2015-10-18 03:37:00,1950E-3,5C000400,-0724,0828,12091,030.2,045.5,0.252,754.5,01.17,0.508
2015-10-18 03:38:00,1804E-3,5C000400,-0724,0829,12313,030.3,045.5,0.252,754.6,01.17,0.508
2015-10-18 03:39:00,1843E-3,5C000400,-0724,0828,12262,030.3,045.5,0.252,754.5,01.17,0.508
2015-10-18 03:40:00,1968E-3,5C000400,-0724,0828,12222,030.3,045.5,0.252,754.5,01.17,0.508
2015-10-18 03:41:00,1886E-3,5C000400,-0724,0827,12277,030.4,045.5,0.252,754.5,01.17,0.508
2015-10-18 03:42:00,1855E-3,5C000400,-0724,0828,12254,030.4,045.5,0.252,754.5,01.17,0.508
2015-10-18 03:43:00,1817E-3,5C000400,-0724,0828,12333,030.4,045.5,0.252,754.5,01.17,0.508
2015-10-18 03:44:00,1786E-3,5C000400,-0724,0828,12174,030.4,045.5,0.252,754.5,01.17,0.508
2015-10-18 03:45:00,1754E-3,5C000400,-0724,0829,12180,030.4,045.5,0.252,754.5,01.17,0.508
2015-10-18 03:46:00,1883E-3,5C000400,-0724,0828,12171,030.5,045.5,0.252,754.5,01.17,0.508
2015-10-18 03:47:00,1884E-3,5C000400,-0724,0829,12244,030.5,045.5,0.252,754.5,01.17,0.508
2015-10-18 03:48:00,1906E-3,5C000400,-0724,0828,12221,030.5,045.5,0.252,754.5,01.17,0.508
2015-10-18 03:49:00,1825E-3,5C000400,-0724,0828,12283,030.5,045.5,0.252,754.5,01.17,0.508
2015-10-18 03:50:00,1836E-3,5C000400,-0724,0828,12318,030.5,045.5,0.252,754.5,01.17,0.508
2015-10-18 03:51:00,1903E-3,5C000400,-0724,0828,12255,030.6,045.5,0.252,754.5,01.17,0.508
2015-10-18 03:52:00,1880E-3,5C000400,-0724,0828,12161,030.6,045.5,0.252,754.5,01.17,0.508
2015-10-18 03:53:00,1864E-3,5C000400,-0724,0828,12014,030.6,045.5,0.252,754.5,01.17,0.508
2015-10-18 03:54:00,1847E-3,5C000400,-0724,0828,12179,030.6,045.5,0.252,754.5,01.17,0.508
2015-10-18 03:55:00,1833E-3,5C000400,-0724,0828,12190,030.6,045.5,0.252,754.5,01.17,0.508
2015-10-18 03:56:00,1760E-3,5C000400,-0724,0828,12223,030.6,045.5,0.252,754.5,01.17,0.508
2015-10-18 03:57:00,1933E-3,5C000400,-0724,0828,12311,030.6,045.5,0.252,754.5,01.17,0.508
2015-10-18 03:58:00,1939E-3,5C000400,-0724,0829,12249,030.6,045.5,0.252,754.5,01.17,0.508
2015-10-18 03:59:00,1876E-3,5C000400,-0724,0828,12176,030.7,045.5,0.252,754.5,01.17,0.508
2015-10-18 04:00:00,1991E-3,5C000400,-0724,0829,12190,030.7,045.5,0.252,754.5,01.17,0.508
2015-10-18 04:01:00,1899E-3,5C000400,-0724,0828,12247,030.7,045.5,0.252,754.6,01.17,0.508
2015-10-18 04:02:00,1850E-3,5C000400,-0724,0829,12144,030.7,045.5,0.252,754.5,01.17,0.508
2015-10-18 04:03:00,1818E-3,5C000400,-0724,0828,12245,030.8,045.5,0.251,754.5,01.17,0.508
2015-10-18 04:04:00,2007E-3,5C000400,-0724,0829,12167,030.8,045.5,0.251,754.5,01.17,0.508
2015-10-18 04:05:00,1948E-3,5C000400,-0724,0829,12179,030.8,045.5,0.251,754.6,01.17,0.508
2015-10-18 04:06:00,1678E-3,5C000400,-0724,0828,12135,030.8,045.5,0.251,754.6,01.17,0.508
2015-10-18 04:07:00,1871E-3,5C000400,-0724,0829,12205,030.8,045.5,0.251,754.6,01.17,0.508
2015-10-18 04:08:00,1895E-3,5C000400,-0724,0828,12416,030.8,045.5,0.251,754.6,01.17,0.508
2015-10-18 04:09:00,1795E-3,5C000400,-0724,0828,12208,030.8,045.5,0.251,754.6,01.17,0.508
2015-10-18 04:10:00,1908E-3,5C000400,-0724,0828,12349,030.7,045.5,0.252,754.6,01.17,0.508
2015-10-18 04:11:00,1984E-3,5C000400,-0724,0828,12168,030.6,045.5,0.251,754.6,01.17,0.508
2015-10-18 04:12:00,1922E-3,5C000400,-0724,0828,12213,030.4,045.5,0.251,754.6,01.17,0.508
2015-10-18 04:13:00,1923E-3,5C000400,-0724,0827,12330,030.2,045.5,0.251,754.6,01.17,0.508
2015-10-18 04:14:00,1874E-3,5C000400,-0724,0828,12364,030.0,045.5,0.252,754.6,01.17,0.508
2015-10-18 04:15:00,1912E-3,5C000400,-0724,0828,12221,029.9,045.5,0.252,754.6,01.17,0.508
2015-10-18 04:16:00,2006E-3,5C000400,-0724,0828,12153,029.8,045.5,0.252,754.6,01.17,0.508
2015-10-18 04:17:00,1847E-3,5C000400,-0724,0828,12251,029.7,045.5,0.252,754.6,01.17,0.508
2015-10-18 04:18:00,1881E-3,5C000400,-0724,0827,12218,029.6,045.5,0.252,754.6,01.17,0.508
2015-10-18 04:19:00,1923E-3,5C000400,-0724,0828,12176,029.7,045.5,0.253,754.6,01.17,0.508
2015-10-18 04:20:00,1880E-3,5C000400,-0724,0827,12193,029.8,045.5,0.253,754.6,01.17,0.508